Galliano, LA

3:06 PM CDT on April 27, 2017 (GMT -0500)
Galliano

Weather History for KGAO - February, 2013

Change the Weather History Date:

Thursday, February 7, 2013

  Actual Average (KHUM) Record (KHUM)
Temperature  
Mean Temperature 62 °F -  
Max Temperature 75 °F 59 °F 82 °F (1950)
Min Temperature 50 °F 41 °F 28 °F (1984)
Degree Days  
Heating Degree Days 2    
Growing Degree Days 12 (Base 50)    
Moisture  
Dew Point 58 °F    
Average Humidity 86    
Maximum Humidity 100    
Minimum Humidity 61    
Precipitation  
Precipitation 0.12 in - - ()
Sea Level Pressure  
Sea Level Pressure 29.91 in    
Wind  
Wind Speed 9 mph (NNW)    
Max Wind Speed 23 mph    
Max Gust Speed 37 mph    
Visibility 8 miles    
Events Fog , Rain , Thunderstorm    
Averages and records for this station are not official NWS values.
T = Trace of Precipitation, MM = Missing Value Source: NWS Daily Summary

Daily Weather History Graph

Daily Weather History Graph

Search for Another Location

Airport or City:

Trip Planner

Search our weather history database for the weather conditions in past years. The results will help you decide how hot, cold, wet, or windy it might be!

Date:

Astronomy

Feb. 07, 2013 Rise Set
Actual Time 6:46 AM CST 5:44 PM CST
Civil Twilight 6:21 AM CST 6:09 PM CST
Nautical Twilight 5:53 AM CST 6:37 PM CST
Astronomical Twilight 5:25 AM CST 7:05 PM CST
Moon 4:19 AM CST (2/7) 3:14 PM CST (2/7)
Length of Visible Light 11h 47m
Length of Day
10h 58m
Waning Crescent, 9% of the Moon is Illuminated
Feb 7
Waning Crescent
Feb 10
New
Feb 17
First Quarter
Feb 25
Full
Mar 4
Last Quarter

Hourly Weather History & Observations

Time (CST) Temp. Dew Point Humidity Pressure Visibility Wind Dir Wind Speed Gust Speed Precip Events Conditions
12:15 AM 55.4 °F 55.4 °F 100% 29.90 in 7.0 mi ENE 11.5 mph 16.1 mph N/A Rain Rain
12:35 AM 55.4 °F 55.4 °F 100% 29.92 in 3.0 mi East 10.4 mph 17.3 mph N/A Rain , Thunderstorm Heavy Thunderstorms and Rain
12:55 AM 55.4 °F 55.4 °F 100% 29.89 in 3.0 mi NE 10.4 mph 18.4 mph 0.01 in Rain , Thunderstorm Rain
1:15 AM 55.4 °F 55.4 °F 100% 29.85 in 5.0 mi NE 15.0 mph 23.0 mph N/A Rain , Thunderstorm Rain
1:35 AM 55.4 °F 55.4 °F 100% 29.86 in 7.0 mi ENE 11.5 mph 17.3 mph N/A Rain Rain
1:55 AM 55.4 °F 55.4 °F 100% 29.85 in 4.0 mi East 15.0 mph 18.4 mph N/A Rain Heavy Rain
2:15 AM 55.4 °F 55.4 °F 100% 29.84 in 3.0 mi NE 8.1 mph 17.3 mph N/A Rain Rain
2:35 AM 55.4 °F 55.4 °F 100% 29.84 in 4.0 mi East 8.1 mph - N/A Rain Rain
2:55 AM 55.4 °F 55.4 °F 100% 29.84 in 3.0 mi ESE 5.8 mph - N/A Rain Heavy Rain
3:15 AM 57.2 °F 57.2 °F 100% 29.83 in 3.0 mi ESE 4.6 mph - 0.01 in Rain Rain
3:35 AM 57.2 °F 57.2 °F 100% 29.81 in 10.0 mi South 10.4 mph 16.1 mph 0.01 in   Unknown
3:55 AM 57.2 °F 57.2 °F 100% 29.80 in 10.0 mi South 16.1 mph 21.9 mph 0.01 in   Unknown
4:15 AM 59.0 °F 59.0 °F 100% 29.81 in 7.0 mi South 15.0 mph 21.9 mph N/A Rain Light Rain
4:35 AM 59.0 °F 59.0 °F 100% 29.80 in 7.0 mi SSE 15.0 mph 24.2 mph N/A Rain Light Rain
4:55 AM 57.2 °F 57.2 °F 100% 29.81 in 7.0 mi South 15.0 mph 21.9 mph N/A   Unknown
5:15 AM 57.2 °F 57.2 °F 100% 29.82 in 7.0 mi South 17.3 mph 24.2 mph N/A   Unknown
5:35 AM 51.8 °F 51.8 °F 100% 29.86 in 5.0 mi NW 19.6 mph 36.8 mph N/A Rain Rain
5:55 AM 51.8 °F 51.8 °F 100% 29.86 in 10.0 mi NNW 21.9 mph 28.8 mph N/A   Unknown
6:15 AM 51.8 °F 51.8 °F 100% 29.86 in 10.0 mi North 23.0 mph 31.1 mph N/A   Unknown
6:35 AM 51.8 °F 51.8 °F 100% 29.85 in 10.0 mi North 17.3 mph 26.5 mph N/A   Unknown
6:55 AM 53.6 °F 51.8 °F 94% 29.86 in 10.0 mi North 12.7 mph - N/A   Unknown
7:15 AM 60.8 °F 59.0 °F 94% 29.87 in 10.0 mi North 11.5 mph - N/A   Unknown
7:35 AM 62.6 °F 59.0 °F 88% 29.88 in 10.0 mi NNE 11.5 mph - N/A   Unknown
7:55 AM 62.6 °F 59.0 °F 88% 29.89 in 10.0 mi NNE 9.2 mph - N/A   Unknown
8:15 AM 64.4 °F 59.0 °F 83% 29.91 in 10.0 mi NW 8.1 mph - N/A   Unknown
8:35 AM 64.4 °F 59.0 °F 83% 29.92 in 10.0 mi WNW 4.6 mph - N/A   Unknown
8:55 AM 66.2 °F 59.0 °F 78% 29.92 in 10.0 mi WNW 5.8 mph - N/A   Unknown
9:15 AM 66.2 °F 60.8 °F 83% 29.93 in 10.0 mi NNW 3.5 mph - N/A   Unknown
9:35 AM 68.0 °F 59.0 °F 73% 29.94 in 10.0 mi North 5.8 mph - 0.01 in   Unknown
9:55 AM 68.0 °F 59.0 °F 73% 29.94 in 10.0 mi Calm Calm - 0.02 in   Unknown
10:15 AM 69.8 °F 59.0 °F 68% 29.94 in 10.0 mi Calm Calm - N/A   Unknown
10:35 AM 69.8 °F 59.0 °F 68% 29.94 in 10.0 mi North 3.5 mph - N/A   Unknown
10:55 AM 71.6 °F 59.0 °F 64% 29.94 in 5.0 mi Calm Calm - 0.01 in   Haze
11:15 AM 73.4 °F 59.0 °F 61% 29.94 in 7.0 mi Calm Calm - 0.01 in   Clear
11:35 AM 73.4 °F 60.8 °F 65% 29.93 in 10.0 mi WNW 3.5 mph - 0.01 in   Clear
11:55 AM 73.4 °F 60.8 °F 65% 29.93 in 10.0 mi WSW 4.6 mph - 0.02 in   Clear
12:15 PM 73.4 °F 60.8 °F 65% 29.93 in 10.0 mi WSW 6.9 mph - 0.01 in   Clear
12:35 PM 73.4 °F 60.8 °F 65% 29.92 in 10.0 mi West 6.9 mph - 0.01 in   Clear
12:55 PM 73.4 °F 62.6 °F 69% 29.91 in 10.0 mi West 6.9 mph - 0.01 in   Clear
1:15 PM 75.2 °F 62.6 °F 65% 29.91 in 10.0 mi WSW 5.8 mph - 0.01 in   Clear
1:35 PM 75.2 °F 62.6 °F 65% 29.90 in 10.0 mi West 8.1 mph - 0.01 in   Clear
1:55 PM 75.2 °F 62.6 °F 65% 29.90 in 10.0 mi West 10.4 mph - 0.02 in   Clear
2:15 PM 75.2 °F 62.6 °F 65% 29.90 in 10.0 mi WNW 10.4 mph 16.1 mph N/A   Clear
2:35 PM 73.4 °F 62.6 °F 69% 29.90 in 10.0 mi WNW 9.2 mph - N/A   Clear
2:55 PM 73.4 °F 60.8 °F 65% 29.90 in 10.0 mi West 9.2 mph - 0.01 in   Clear
3:15 PM 73.4 °F 60.8 °F 65% 29.90 in 10.0 mi West 5.8 mph - N/A   Clear
3:35 PM 73.4 °F 62.6 °F 69% 29.90 in 10.0 mi NNW 8.1 mph - N/A   Clear
3:55 PM 71.6 °F 62.6 °F 73% 29.91 in 7.0 mi NNW 12.7 mph - 0.01 in   Clear
4:15 PM 69.8 °F 60.8 °F 73% 29.91 in 7.0 mi NNW 10.4 mph - N/A   Clear
4:35 PM 69.8 °F 60.8 °F 73% 29.91 in 10.0 mi NW 10.4 mph - N/A   Clear
4:55 PM 69.8 °F 60.8 °F 73% 29.92 in 10.0 mi NW 5.8 mph - N/A   Clear
5:15 PM 68.0 °F 60.8 °F 78% 29.92 in 10.0 mi NNW 6.9 mph - N/A   Clear
5:35 PM 64.4 °F 60.8 °F 88% 29.93 in 10.0 mi NNW 5.8 mph - N/A   Clear
5:55 PM 64.4 °F 59.0 °F 83% 29.93 in 10.0 mi NNW 4.6 mph - N/A   Clear
6:15 PM 62.6 °F 59.0 °F 88% 29.94 in 10.0 mi NNW 3.5 mph - N/A   Clear
6:35 PM 62.6 °F 59.0 °F 88% 29.94 in 10.0 mi Calm Calm - N/A   Clear
6:55 PM 62.6 °F 59.0 °F 88% 29.95 in 10.0 mi Calm Calm - N/A   Clear
7:15 PM 62.6 °F 59.0 °F 88% 29.95 in 10.0 mi Calm Calm - N/A   Clear
7:35 PM 62.6 °F 59.0 °F 88% 29.95 in 10.0 mi Calm Calm - N/A   Clear
7:55 PM 60.8 °F 59.0 °F 94% 29.95 in 7.0 mi Calm Calm - N/A   Clear
8:15 PM 60.8 °F 59.0 °F 94% 29.96 in 10.0 mi Calm Calm - N/A   Clear
8:35 PM 60.8 °F 59.0 °F 94% 29.96 in 7.0 mi Calm Calm - N/A   Clear
8:55 PM 59.0 °F 57.2 °F 94% 29.96 in 4.0 mi Calm Calm - N/A   Clear
9:15 PM 55.4 °F 55.4 °F 100% 29.96 in 5.0 mi Calm Calm - N/A   Clear
9:35 PM 53.6 °F 53.6 °F 100% 29.96 in 1.2 mi Calm Calm - N/A   Mist
9:55 PM 53.6 °F 53.6 °F 100% 29.97 in 0.8 mi Calm Calm - N/A   Mist
10:15 PM 51.8 °F 51.8 °F 100% 29.97 in 2.5 mi Calm Calm - N/A   Clear
10:35 PM 51.8 °F 50.0 °F 94% 29.97 in 0.5 mi Calm Calm - N/A Fog Fog
10:55 PM 50.0 °F 50.0 °F 100% 29.97 in 0.2 mi Calm Calm - N/A Fog Fog
11:15 PM 51.8 °F 51.8 °F 100% 29.96 in 7.0 mi Calm Calm - N/A   Clear
11:35 PM 50.0 °F 50.0 °F 100% 29.97 in 0.8 mi Calm Calm - N/A   Mist
11:55 PM 50.0 °F 50.0 °F 100% 29.97 in 0.5 mi Calm Calm - N/A Fog Fog